This demonstration page uses our WeatherBlox Daily Observations layout. Learn more.

Hourly Observations for December 26, 2017

Temp ( °F °C ) Dew Point ( °F °C ) Humidity (%) Winds ( mph kmh ) Pressure ( in mb ) Visibility ( mi km ) Precip ( " mm )
12:15 am 00:15 Cloudy with Light Snow 5 -15.2 0 -18 79 79 N 7 11 30.68 1039 1.5 2.414016 0 0
12:35 am 00:35 Cloudy with Light Snow 5 -15.2 0 -18 79 79 N 9 15 30.68 1039 2 3.218688 0 0
12:55 am 00:55 Cloudy with Light Snow 5 -15.2 0 -18 79 79 N 7 11 30.68 1039 3 4.828032 0 0
1:15 am 01:15 Cloudy with Light Snow 5 -15.2 0 -18 79 79 N 5 7 30.68 1039 3 4.828032 0 0
1:35 am 01:35 Cloudy with Light Snow 5 -15.1 0 -18 79 79 N 7 11 30.65 1038 4 6.437376 0 0
1:55 am 01:55 Cloudy with Light Snow 5 -15.2 -1 -18.1 79 79 N 8 13 30.65 1038 5 8.04672 0 0
2:15 am 02:15 Cloudy with Light Snow 5 -15.2 -1 -18.2 78 78 NNE 8 13 30.65 1038 2.5 4.02336 0 0
2:35 am 02:35 Cloudy with Light Snow 5 -15.2 -1 -18.3 77 77 N 7 11 30.68 1039 4 6.437376 0 0
2:55 am 02:55 Cloudy with Light Snow 4 -15.3 -1 -18.5 77 77 NNE 8 13 30.71 1040 5 8.04672 0 0
3:15 am 03:15 Cloudy with Light Snow 4 -15.5 -2 -18.8 76 76 NNE 9 15 30.71 1040 7 11.265408 0 0
3:35 am 03:35 Cloudy with Light Snow 4 -15.7 -2 -18.8 77 77 N 7 11 30.71 1040 10 16.09344 0 0
3:55 am 03:55 Cloudy with Light Snow 4 -15.7 -2 -18.8 77 77 N 7 11 30.71 1040 10 16.09344 0 0
4:15 am 04:15 Cloudy 4 -15.7 -2 -18.8 77 77 N 7 11 30.71 1040 10 16.09344 0 0
4:35 am 04:35 Cloudy 4 -15.6 -2 -18.8 77 77 N 7 11 30.74 1041 10 16.09344 0 0
4:55 am 04:55 Cloudy 4 -15.7 -2 -18.9 77 77 NNE 7 11 30.71 1040 10 16.09344 0 0
5:15 am 05:15 Cloudy with Light Snow 4 -15.6 -2 -18.9 76 76 NNE 7 11 30.71 1040 3 4.828032 0 0
5:35 am 05:35 Cloudy with Light Snow 4 -15.7 -2 -18.8 77 77 NNE 6 9 30.71 1040 3 4.828032 0 0
5:55 am 05:55 Cloudy 4 -15.8 -2 -19 77 77 N 7 11 30.74 1041 7 11.265408 0 0
6:15 am 06:15 Cloudy 3 -16 -2 -19 78 78 N 5 7 30.77 1042 7 11.265408 0 0
6:35 am 06:35 Cloudy 3 -16 -2 -19 78 78 N 3 6 30.77 1042 10 16.09344 0 0
6:55 am 06:55 Cloudy 3 -16 -3 -19.2 77 77 N 3 6 30.77 1042 10 16.09344 0 0
7:15 am 07:15 Cloudy with Haze 3 -16.3 -3 -19.5 77 77 N 5 7 30.77 1042 5 8.04672 0 0
7:35 am 07:35 Cloudy 2 -16.6 -3 -19.6 78 78 N 5 7 30.77 1042 10 16.09344 0 0
7:55 am 07:55 Cloudy with Light Snow 1 -17.1 -4 -20 78 78 Calm 30.77 1042 3 4.828032 0 0
8:15 am 08:15 Mostly Cloudy with Haze 0 -17.8 -5 -20.6 79 79 N 6 9 30.83 1044 5 8.04672 0 0
8:35 am 08:35 Mostly Cloudy with Scattered Snow Showers -4 -19.9 -8 -22.4 81 81 NNW 5 7 30.86 1045 10 16.09344 0 0
8:55 am 08:55 Cloudy with Light Snow -3 -19.7 -8 -22.3 80 80 N 3 6 30.86 1045 10 16.09344 0 0
9:15 am 09:15 Cloudy -3 -19.6 -8 -22 81 81 Calm 30.86 1045 10 16.09344 0 0
9:35 am 09:35 Partly Cloudy -3 -19.4 -7 -21.8 81 81 NW 5 7 30.83 1044 10 16.09344 0 0
9:55 am 09:55 Partly Cloudy -5 -20.7 -10 -23.1 81 81 NW 5 7 30.86 1045 10 16.09344 0 0
10:15 am 10:15 Sunny -3 -19.6 -8 -22 81 81 W 5 7 30.89 1046 7 11.265408 0 0
10:35 am 10:35 Sunny -3 -19.2 -7 -21.9 79 79 NW 3 6 30.86 1045 7 11.265408 0 0
10:55 am 10:55 Sunny -1 -18.6 -6 -21.2 80 80 Calm 30.86 1045 10 16.09344 0 0
11:15 am 11:15 Sunny 1 -17.4 -5 -20.5 77 77 Calm 30.86 1045 10 16.09344 0 0
11:35 am 11:35 Sunny 2 -16.4 -4 -19.9 75 75 Calm 30.83 1044 10 16.09344 0 0
11:55 am 11:55 Partly Cloudy 3 -16 -4 -19.9 72 72 Calm 30.83 1044 10 16.09344 0 0
12:15 pm 12:15 Partly Cloudy 3 -16 -4 -20 72 72 Calm 30.83 1044 10 16.09344 0 0
12:35 pm 12:35 Mostly Cloudy 4 -15.6 -3 -19.6 72 72 Calm 30.8 1043 10 16.09344 0 0
12:55 pm 12:55 Cloudy 5 -15.2 -3 -19.5 70 70 Calm 30.8 1043 10 16.09344 0 0
1:15 pm 13:15 Cloudy 5 -14.9 -3 -19.5 68 68 Calm 30.8 1043 10 16.09344 0 0
1:35 pm 13:35 Cloudy 5 -15.1 -4 -20 66 66 Calm 30.8 1043 10 16.09344 0 0
1:55 pm 13:55 Cloudy 5 -15.1 -4 -19.8 68 68 Calm 30.77 1042 10 16.09344 0 0
2:15 pm 14:15 Cloudy 5 -14.9 -4 -20 65 65 Calm 30.77 1042 10 16.09344 0 0
2:35 pm 14:35 Partly Cloudy 5 -15.1 -4 -20.1 66 66 Calm 30.77 1042 10 16.09344 0 0
2:55 pm 14:55 Sunny 5 -15 -4 -19.8 67 67 Calm 30.77 1042 10 16.09344 0 0
3:15 pm 15:15 Sunny 5 -15 -4 -19.8 67 67 Calm 30.77 1042 10 16.09344 0 0
3:35 pm 15:35 Sunny 5 -15.1 -4 -19.8 68 68 Calm 30.77 1042 10 16.09344 0 0
3:55 pm 15:55 Sunny 6 -14.7 -3 -19.5 67 67 Calm 30.8 1043 10 16.09344 0 0
4:15 pm 16:15 Sunny 5 -15.1 -3 -19.3 71 71 Calm 30.8 1043 10 16.09344 0 0
4:35 pm 16:35 Sunny 4 -15.6 -3 -19.5 72 72 Calm 30.8 1043 10 16.09344 0 0
4:55 pm 16:55 Sunny 2 -16.5 -3 -19.3 79 79 Calm 30.8 1043 10 16.09344 0 0
5:15 pm 17:15 Sunny 1 -17.5 -4 -20 81 81 Calm 30.83 1044 10 16.09344 0 0
5:35 pm 17:35 Clear 1 -17.4 -4 -19.9 81 81 S 3 6 30.83 1044 10 16.09344 0 0
5:55 pm 17:55 Clear -2 -18.7 -6 -21 82 82 Calm 30.83 1044 10 16.09344 0 0
6:15 pm 18:15 Clear -1 -18.2 -5 -20.4 83 83 SSE 3 6 30.83 1044 10 16.09344 0 0
6:35 pm 18:35 Clear -3 -19.2 -7 -21.6 81 81 SSE 5 7 30.83 1044 10 16.09344 0 0
6:55 pm 18:55 Clear -4 -20.1 -9 -22.7 80 80 S 3 6 30.86 1045 10 16.09344 0 0
7:15 pm 19:15 Clear -7 -21.4 -11 -24 80 80 Calm 30.89 1046 10 16.09344 0 0
7:35 pm 19:35 Clear -6 -21.1 -10 -23.5 81 81 Calm 30.89 1046 10 16.09344 0 0
7:55 pm 19:55 Clear -13 -24.8 -18 -27.8 76 76 Calm 30.95 1048 10 16.09344 0 0
8:15 pm 20:15 Clear -9 -23 -14 -25.8 78 78 Calm 30.92 1047 10 16.09344 0 0
8:35 pm 20:35 Clear -10 -23.6 -15 -26.3 79 79 Calm 30.92 1047 10 16.09344 0 0
8:55 pm 20:55 Hazy -12 -24.6 -18 -27.5 77 77 Calm 30.95 1048 3 4.828032 0 0
9:15 pm 21:15 Hazy -12 -24.4 -17 -27.4 76 76 Calm 30.95 1048 5 8.04672 0 0
9:35 pm 21:35 Hazy -12 -24.2 -17 -27.2 76 76 Calm 30.98 1049 2 3.218688 0 0
9:55 pm 21:55 Hazy -13 -24.9 -19 -28.2 74 74 Calm 30.95 1048 5 8.04672 0 0
10:15 pm 22:15 Clear -12 -24.7 -18 -27.9 75 75 Calm 30.98 1049 10 16.09344 0 0
10:35 pm 22:35 Hazy -13 -25.1 -19 -28.4 74 74 Calm 30.95 1048 3 4.828032 0 0
10:55 pm 22:55 Mostly Cloudy with Haze -15 -26 -21 -29.4 73 73 Calm 30.98 1049 0.5 0.804672 0 0
11:15 pm 23:15 Mostly Cloudy with Haze N/A N/A N/A Calm N/A 0.5 0.804672 0 0
11:35 pm 23:35 Cloudy with Fog N/A N/A N/A Calm N/A 0.5 0.804672 0 0
11:55 pm 23:55 Partly Cloudy N/A N/A N/A Calm N/A 10 16.09344 0 0

Powered by AerisWeather